Location: Ottawa
(45.4170°N, 75.7000°W)
Time: 06:21:02
(UTC-05:00)

ISS - Pass Details

Date: 10 February 2026
Orbit: 416 x 427 km, 51.6° (Epoch: 5 March)

Event Time Altitude Azimuth Distance (km) Brightness Sun altitude
Rises 06:24:32 0° 197° (SSW) 2,344 0.0 -8.8°
Reaches altitude 10° 06:27:08 10° 176° (S) 1,485 -0.8 -8.4°
Maximum altitude 06:29:20 17° 135° (SE) 1,151 -0.6 -8.0°
Drops below altitude 10° 06:31:32 10° 93° (E) 1,490 0.7 -7.6°
Sets 06:34:08 0° 72° (ENE) 2,357 1.2 -7.2°
